FENGYUN 1C DEB, 31041

Orbit data source: Space-Track

FENGYUN 1C DEB, 31041 is space debris in SSO originally from a launch on Mon, 10 May 1999 UTC launched from the Taiyaun Space Center, China (TSC). Fengyun 1C debris stems from the Chinese weather satellite Fengyun-1C, which was intentionally destroyed by a Chinese anti-satellite missile in 2007. This event dramatically increased the amount of space debris, with thousands of trackable fragments posing hazards to satellites and human spaceflight. The Fengyun 1C debris cloud has become a focal point in discussions about space sustainability and the need for international regulations to prevent the creation of new debris.

Loading next visibility...
Identifier
31041, 1999-025BEK
Orbit
SSO
Country
Flag of CNCN / PRC
Related business
Manufacturer
Unknown
Mission
Spacecraft
Bus & Motor
Unknown
Mass
Unknown
Launch date (UTC)
1999-05-10 (27 years ago)
Launch vehicle
Unknown
Launch site
Taiyaun Space Center, China (TSC)
Object type
Payload
Rocket body
Debris
Shape & HBR
Unknown shape, 0.1 m
Radar Cross Section
Medium (>0.1 m² and <1 m²)

Expand to show TLE details & history
Last TLE update: 2 days ago

TLE from 2 days ago
0 FENGYUN 1C DEB
1 31041U 99025BEK 26171.07097459  .00002882  00000-0  13380-2 0  9999
2 31041  99.1887 211.6583 0088724 143.8838 216.8374 14.19436484981747
Epoch: 2026-06-20T01:42Z
TLE epoch observation values (Epoch: 2026-06-20T01:42:12.204Z)
Latitude
0.00001°
Longitude
-82.18342°
Altitude
881.535 km
Speed
7.385 km/s
True Right ascension
14h 06m 37s
True Declination
0° 00' 00"
Sunlit
Object was in full shadow at epoch
Visualization orbit readout
Latitude
Unknown
Longitude
Unknown
Altitude
Unknown
Speed
Unknown
Apparent Right ascension
Unknown
Apparent Declination
Unknown
Sunlit
N/A
Visualization observer readout
Local Sidereal Time
01:12:07
Azimuth
Unknown
Elevation
Unknown
Doppler factor
Unknown
Orbital elements
Apogee altitude
888.346 km
Perigee altitude
760.538 km
Semi-major axis
7,202.579 km
Eccentricity
0.00887
Inclination
99.1887°
RAAN
211.6583°
Arg. of periapsis
143.8838°
True anomaly
216.23322°
Mean anomaly
216.8374°
Eccentric anomaly
216.53477°
Mean motion
3.55068 °/min
Orbital period
101.39 mins
BSTAR
0.001338
Loading maneuver chart data...
Computing Atmospheric mass density...

Documentation

Showing up to 5 results
|